Weather History for Menominee, MI

Change the Weather History Date:

Friday, March 22, 2013

  Actual Average Record
Temperature  
Mean Temperature 22 °F -  
Max Temperature 33 °F 43 °F 60 °F (2012)
Min Temperature 12 °F 23 °F 1 °F (2004)
Degree Days  
Heating Degree Days 42    
Moisture  
Dew Point 17 °F    
Average Humidity 73    
Maximum Humidity 93    
Minimum Humidity 56    
Precipitation  
Precipitation 0.00 in - - ()
Sea Level Pressure  
Sea Level Pressure 30.02 in    
Wind  
Wind Speed 6 mph (NNW)    
Max Wind Speed 10 mph    
Max Gust Speed 16 mph    
Visibility 10 miles    
Events      
Averages and records for this station are not official NWS values.
T = Trace of Precipitation, MM = Missing Value Source: NWS Daily Summary

Daily Weather History Graph

Daily Weather History Graph

Search for Another Location

Airport:

Trip Planner

Search our weather history database for the weather conditions in past years. The results will help you decide how hot, cold, wet, or windy it might be!

Date:

Astronomy

Mar. 22, 2013 Rise Set
Actual Time 6:49 AM CDT 7:05 PM CDT
Civil Twilight 6:20 AM CDT 7:35 PM CDT
Nautical Twilight 5:45 AM CDT 8:10 PM CDT
Astronomical Twilight 5:09 AM CDT 8:45 PM CDT
Moon 2:22 PM CDT 4:01 AM CDT
Length of Visible Light 13h 15m
Length of Day
12h 16m
Waxing Gibbous, 77% of the Moon is Illuminated
Mar 22
Waxing Gibbous
Mar 27
Full
Apr 2
Last Quarter
Apr 10
New
Apr 18
First Quarter

Hourly Weather History & Observations

Time (CDT) Temp. Windchill Dew Point Humidity Pressure Visibility Wind Dir Wind Speed Gust Speed Precip Events Conditions
12:15 AM 17.6 °F 12.3 °F 12.2 °F 79% 30.00 in 10.0 mi North 3.5 mph - N/A   Clear
12:35 AM 17.6 °F 10.7 °F 10.4 °F 73% 30.01 in 10.0 mi NNW 4.6 mph - N/A   Clear
12:55 AM 15.8 °F 10.2 °F 10.4 °F 79% 30.01 in 10.0 mi NNW 3.5 mph - N/A   Clear
1:15 AM 15.8 °F 10.2 °F 10.4 °F 79% 30.01 in 10.0 mi NNW 3.5 mph - N/A   Clear
1:35 AM 15.8 °F 10.2 °F 10.4 °F 79% 30.01 in 10.0 mi NW 3.5 mph - N/A   Partly Cloudy
1:55 AM 15.8 °F 8.6 °F 10.4 °F 79% 30.01 in 10.0 mi NW 4.6 mph - N/A   Partly Cloudy
2:15 AM 15.8 °F 8.6 °F 10.4 °F 79% 30.01 in 10.0 mi NW 4.6 mph - N/A   Partly Cloudy
2:35 AM 15.8 °F 10.2 °F 8.6 °F 73% 30.01 in 10.0 mi WNW 3.5 mph - N/A   Mostly Cloudy
2:55 AM 15.8 °F 10.2 °F 10.4 °F 79% 30.01 in 10.0 mi WNW 3.5 mph - N/A   Scattered Clouds
3:15 AM 14.0 °F 8.2 °F 12.2 °F 93% 30.00 in 10.0 mi WNW 3.5 mph - N/A   Clear
3:35 AM 15.8 °F 10.2 °F 12.2 °F 86% 30.00 in 10.0 mi WNW 3.5 mph - N/A   Clear
3:55 AM 14.0 °F 8.2 °F 12.2 °F 93% 30.00 in 10.0 mi NW 3.5 mph - N/A   Clear
4:15 AM 14.0 °F 6.5 °F 12.2 °F 93% 30.00 in 10.0 mi WNW 4.6 mph - N/A   Clear
4:35 AM 12.2 °F 4.3 °F 10.4 °F 92% 30.00 in 10.0 mi WNW 4.6 mph - N/A   Clear
4:55 AM 12.2 °F 6.1 °F 8.6 °F 85% 30.00 in 10.0 mi WNW 3.5 mph - N/A   Clear
5:15 AM 12.2 °F 4.3 °F 10.4 °F 92% 30.00 in 10.0 mi WNW 4.6 mph - N/A   Clear
5:35 AM 12.2 °F 4.3 °F 10.4 °F 92% 30.00 in 10.0 mi NW 4.6 mph - N/A   Clear
5:55 AM 12.2 °F 2.9 °F 10.4 °F 92% 30.00 in 10.0 mi WNW 5.8 mph - N/A   Clear
6:15 AM 12.2 °F 2.9 °F 8.6 °F 85% 30.00 in 10.0 mi WNW 5.8 mph - N/A   Clear
6:35 AM 12.2 °F 1.7 °F 10.4 °F 92% 30.02 in 10.0 mi NW 6.9 mph - N/A   Clear
6:55 AM 12.2 °F 2.9 °F 10.4 °F 92% 30.01 in 10.0 mi NW 5.8 mph - N/A   Mostly Cloudy
7:15 AM 14.0 °F 3.9 °F 12.2 °F 93% 30.02 in 10.0 mi NW 6.9 mph - N/A   Overcast
7:35 AM 15.8 °F 6.1 °F 12.2 °F 86% 30.02 in 10.0 mi NW 6.9 mph - N/A   Overcast
7:55 AM 15.8 °F 4.2 °F 14.0 °F 93% 30.02 in 10.0 mi NNW 9.2 mph - N/A   Overcast
8:15 AM 17.6 °F 6.4 °F 15.8 °F 93% 30.02 in 10.0 mi NNW 9.2 mph - N/A   Overcast
8:35 AM 17.6 °F 5.7 °F 14.0 °F 86% 30.02 in 10.0 mi NNW 10.4 mph - N/A   Overcast
8:55 AM 19.4 °F 8.6 °F 15.8 °F 86% 30.02 in 10.0 mi NNW 9.2 mph - N/A   Overcast
9:15 AM 21.2 °F 10.9 °F 15.8 °F 80% 30.01 in 10.0 mi North 9.2 mph - N/A   Mostly Cloudy
9:35 AM 23.0 °F 12.4 °F 15.8 °F 74% 30.01 in 10.0 mi NNW 10.4 mph - N/A   Partly Cloudy
9:55 AM 24.8 °F 17.9 °F 17.6 °F 74% 30.02 in 10.0 mi North 5.8 mph - N/A   Partly Cloudy
10:15 AM 26.6 °F 18.2 °F 17.6 °F 69% 30.02 in 10.0 mi North 8.1 mph - N/A   Mostly Cloudy
10:35 AM 28.4 °F 21.2 °F 17.6 °F 64% 30.02 in 10.0 mi North 6.9 mph - N/A   Overcast
10:55 AM 28.4 °F 19.1 °F 17.6 °F 64% 30.01 in 10.0 mi NNW 10.4 mph - N/A   Overcast
11:15 AM 28.4 °F 21.2 °F 17.6 °F 64% 30.02 in 10.0 mi North 6.9 mph - N/A   Overcast
11:35 AM 28.4 °F 19.7 °F 17.6 °F 64% 30.01 in 10.0 mi North 9.2 mph - N/A   Overcast
11:55 AM 28.4 °F 21.2 °F 17.6 °F 64% 30.01 in 10.0 mi North 6.9 mph - N/A   Overcast
12:15 PM 30.2 °F 22.6 °F 17.6 °F 60% 30.01 in 10.0 mi NNE 8.1 mph - N/A   Mostly Cloudy
12:35 PM 30.2 °F 21.9 °F 19.4 °F 64% 30.01 in 10.0 mi North 9.2 mph 16.1 mph N/A   Scattered Clouds
12:55 PM 30.2 °F 21.3 °F 19.4 °F 64% 30.01 in 10.0 mi NNE 10.4 mph - N/A   Mostly Cloudy
1:15 PM 30.2 °F 21.9 °F 19.4 °F 64% 30.01 in 10.0 mi NNE 9.2 mph - N/A   Overcast
1:35 PM 30.2 °F 23.4 °F 19.4 °F 64% 30.01 in 10.0 mi NNE 6.9 mph - N/A   Overcast
1:55 PM 30.2 °F 21.9 °F 21.2 °F 69% 30.01 in 10.0 mi NNE 9.2 mph - N/A   Overcast
2:15 PM 30.2 °F 24.3 °F 19.4 °F 64% 30.01 in 10.0 mi NNW 5.8 mph - N/A   Overcast
2:35 PM 33.8 °F 27.0 °F 19.4 °F 56% 30.01 in 10.0 mi NNE 8.1 mph - N/A   Overcast
2:55 PM 32.0 °F 24.8 °F 19.4 °F 60% 30.00 in 10.0 mi North 8.1 mph - N/A   Overcast
3:15 PM 32.0 °F 24.2 °F 19.4 °F 60% 30.00 in 10.0 mi North 9.2 mph - N/A   Overcast
3:35 PM 33.8 °F 25.8 °F 19.4 °F 56% 30.00 in 10.0 mi North 10.4 mph - N/A   Overcast
3:55 PM 33.8 °F 27.0 °F 21.2 °F 60% 30.00 in 10.0 mi North 8.1 mph - N/A   Overcast
4:15 PM 33.8 °F 27.7 °F 19.4 °F 56% 30.00 in 10.0 mi NNE 6.9 mph - N/A   Overcast
4:35 PM 33.8 °F 28.6 °F 19.4 °F 56% 30.00 in 10.0 mi NNE 5.8 mph - N/A   Overcast
4:55 PM 33.8 °F 27.7 °F 19.4 °F 56% 30.01 in 10.0 mi NNE 6.9 mph - N/A   Overcast
5:15 PM 33.8 °F 27.7 °F 19.4 °F 56% 30.01 in 10.0 mi North 6.9 mph - N/A   Overcast
5:35 PM 33.8 °F 26.4 °F 19.4 °F 56% 30.01 in 10.0 mi North 9.2 mph - N/A   Overcast
5:55 PM 33.8 °F 29.6 °F 21.2 °F 60% 30.02 in 10.0 mi NNW 4.6 mph - N/A   Overcast
6:15 PM 33.8 °F 29.6 °F 19.4 °F 56% 30.03 in 10.0 mi WNW 4.6 mph - N/A   Overcast
6:35 PM 33.8 °F 30.8 °F 19.4 °F 56% 30.03 in 10.0 mi WNW 3.5 mph - N/A   Overcast
6:55 PM 33.8 °F 30.8 °F 21.2 °F 60% 30.03 in 10.0 mi WNW 3.5 mph - N/A   Overcast
7:15 PM 32.0 °F 27.5 °F 21.2 °F 64% 30.04 in 10.0 mi WSW 4.6 mph - N/A   Overcast
7:35 PM 30.2 °F 25.4 °F 21.2 °F 69% 30.04 in 10.0 mi SW 4.6 mph - N/A   Overcast
7:55 PM 30.2 °F 26.7 °F 21.2 °F 69% 30.04 in 10.0 mi SW 3.5 mph - N/A   Overcast
8:15 PM 30.2 °F - 21.2 °F 69% 30.04 in 10.0 mi Calm Calm - N/A   Overcast
8:35 PM 30.2 °F 25.4 °F 21.2 °F 69% 30.04 in 10.0 mi WSW 4.6 mph - N/A   Overcast
8:55 PM 30.2 °F 25.4 °F 19.4 °F 64% 30.05 in 10.0 mi WSW 4.6 mph - N/A   Overcast
9:15 PM 30.2 °F - 21.2 °F 69% 30.05 in 10.0 mi Calm Calm - N/A   Overcast
9:35 PM 30.2 °F - 21.2 °F 69% 30.06 in 10.0 mi Calm Calm - N/A   Overcast
9:55 PM 30.2 °F 24.3 °F 23.0 °F 75% 30.06 in 10.0 mi ENE 5.8 mph - N/A   Overcast
10:15 PM 30.2 °F 24.3 °F 23.0 °F 75% 30.06 in 10.0 mi East 5.8 mph - N/A   Overcast
10:35 PM 30.2 °F 23.4 °F 23.0 °F 75% 30.06 in 10.0 mi East 6.9 mph - N/A   Overcast
10:55 PM 30.2 °F 22.6 °F 21.2 °F 69% 30.06 in 10.0 mi East 8.1 mph - N/A   Overcast
11:15 PM 28.4 °F 22.2 °F 24.8 °F 86% 30.07 in 10.0 mi East 5.8 mph - N/A   Overcast
11:35 PM 28.4 °F 19.1 °F 23.0 °F 80% 30.07 in 10.0 mi East 10.4 mph - N/A   Overcast
11:55 PM 28.4 °F 19.7 °F 23.0 °F 80% 30.08 in 10.0 mi ENE 9.2 mph - N/A   Overcast